Regional Weather Roundup
Issued by NWS Charleston, SC

Current Version | Previous Version | Graphics & Text | Print | Product List | Glossary On
Versions: 1 2 3 4 5 6 7 8 9 10 11 12 13 14 15 16 17 18 19 20 21 22 23 24 25 26 27 28 29 30 31 32 33 34 35 36 37 38 39 40 41 42 43 44 45 46 47 48 49 50
000
ASUS42 KCHS 300327
RWRCHS

REGIONAL WEATHER ROUNDUP
NATIONAL WEATHER SERVICE CHARLESTON SC
1100 PM EDT SAT APR 29 2017

NOTE: "FAIR" INDICATES FEW OR NO CLOUDS BELOW 12,000 FEET WITH NO
SIGNIFICANT WEATHER AND/OR OBSTRUCTIONS TO VISIBILITY.

NOT ALL STATIONS ARE QUALITY CONTROLLED. USE DATA WITH CAUTION...
ESPECIALLY DEWPOINT OBSERVATIONS.

SCZ027-030-031-034>040-042>050-300400-
...SOUTHEAST SOUTH CAROLINA...

CITY           SKY/WX    TMP DP  RH WIND       PRES   REMARKS
N CHARLESTON   PTCLDY    74  70  87 S13       30.19S
WATERFRONT PRK   N/A     75  73  93 S10       30.17S
JOHNS ISLAND   FAIR      75  73  94 SE7       30.19S
PINOPOLIS        N/A     73  72  94 VRB2      30.11S
MONCKS CORNER  FAIR      72  70  94 SE3       30.19S
SUMMERVILLE    FAIR      72  70  94 CALM      30.19S
BEAUFORT MCAS  CLEAR     77  74  90 SE9       30.17F
BEAUFORT ARPT  FAIR      73  72  94 S6        30.18S
HILTON HEAD IS PTCLDY    75  73  94 VRB7G13   30.19S
WALTERBORO     PTCLDY    70  70 100 SE5       30.19S
ALLENDALE      FAIR      73  70  88 SE5       30.16S

...SOUTHERN MIDLANDS AND PEE DEE...

CITY           SKY/WX    TMP DP  RH WIND       PRES   REMARKS
GEORGETOWN     FAIR      70  70 100 SE3       30.21F
KINGSTREE      FAIR      72  68  88 SE5       30.19S
ORANGEBURG     PTCLDY    72  69  90 S5        30.18R
BARNWELL       FAIR      73  70  88 SE5       30.17S
AIKEN          FAIR      72  64  78 SE10      30.20R
MANNING        FAIR      70  68  94 S5        30.19S
COLUMBIA       MOCLDY    76  66  71 SE8       30.16R
SUMTER         PTCLDY    73  67  82 S7        30.16R
FLORENCE       CLOUDY    73  69  87 S9        30.19S
MYRTLE BEACH   NOT AVBL
N MYRTLE BEACH CLOUDY    76  72  87 S9        30.21R

$$

GAZ063-065-086>088-099>101-113>116-118-119-134>141-150-300400-
...SOUTHEAST GEORGIA...

CITY           SKY/WX    TMP DP  RH WIND       PRES   REMARKS
SAVANNAH ARPT  PTCLDY    75  68  78 SE10      30.17S
HUNTER AAF     PTCLDY    75  75  99 SE7       30.15R FOG
FORT STEWART   MOCLDY    71  68  89 SE6       30.14S
STATESBORO     PTCLDY    73  71  91 SE5       30.16S
SYLVANIA       PTCLDY   N/A N/A N/A CALM      30.17S
CLAXTON        FAIR      73  73 100 E3        30.16R

...CSRA...CENTRAL AND FAR SOUTHEAST GEORGIA...

CITY           SKY/WX    TMP DP  RH WIND       PRES   REMARKS
THOMSON        CLEAR     75  67  75 S9        30.20R
AUGUSTA-BUSH   PTCLDY    76  68  76 SE7       30.14R
AUGUSTA-DANIEL PTCLDY    76  65  68 SE9       30.16R
SWAINSBORO     FAIR      73  68  83 SE8       30.16S
VIDALIA        CLEAR     75  68  78 SE8       30.15S
EASTMAN        MOCLDY    79  62  57 SE5       30.15R
HAZLEHURST     FAIR      76  70  81 SE6G17    30.13R
ALMA           PTCLDY    74  69  85 SE8       30.13R
WAYCROSS       PTCLDY    76  74  92 SE12      30.14S
JESUP          FAIR      72  68  88 SE3       30.16S
BAXLEY         FAIR      75  75 100 SE7       30.14R
BRUNSWICK      PTCLDY    77  73  88 SE8       30.17S
SAINT SIMONS   PTCLDY    76  71  85 SE12      30.16R

$$

SCZ027-028-034-036>038-045-046-048>050-GAZ119-141-300400-
...LAKE AND SUPPLEMENTAL COASTAL OBSERVATIONS...

STATION/POSITION TIME  TEMP    WIND        PRES    WAVE   SWELL
                       AIR SEA DIR/SP/G            HT/PER HT/PER/DIR
                 (UTC) (F)     (DEG/KT/KT) (MB)    (FT/S) (FT/S/D)
WINYAH BAY       0245   75     180/  6     1023.0R
LAKE MURRAY      0320   75     160/  8/ 11 1021.0
ACE BASIN NERRS  0245   75     140/  3     1022.0S
FORT PULASKI     0300   75 76  140/  5/  8 1022.2
SAPELO ISLAND    0245   75     130/  6     1021.0S

$$

ANZ835-935-AMZ111-154-330-350-352-354-370-450-454-472-300400-
...C-MAN AND BUOY OBSERVATIONS...

STATION/POSITION TIME  TEMP    WIND        PRES    WAVE   SWELL
                       AIR SEA DIR/SP/G            HT/PER HT/PER/DIR
                 (UTC) (F)     (DEG/KT/KT) (MB)    (FT/S) (FT/S/D)
BUOY 41004       0310   76 76  150/ 12/ 14 1022.4
BUOY 41008       0250   75 74  150/  8/ 10 1021.2R   3/ 6   3/120/ 6
FOLLY BEACH CMAN 0300   76     150/ 12/ 14 1022.9F
CAPERS NEARSHORE 0308   76 76  170/ 12/ 17 1022.2F
FRIPP NEARSHORE  0308   75 75  150/ 10/ 14 1021.7F


STATION/POSITION TIME  TEMP    WIND        PRES    WAVE   SWELL
                       AIR SEA DIR/SP/G            HT/PER HT/PER/DIR
                 (UTC) (F)     (DEG/KT/KT) (MB)    (FT/S) (FT/S/D)
5E ST. MARYS GA  0300      75                N/A     3/ 5
FRYING PAN BUOY  0310   76 74  190/ 10/ 12 1023.3
BUOY 41025       0250   76 75  230/ 14/ 17 1023.1R   3/ 7   2/150/ 7
CAPE LOOKOUT NC  0300   73     210/  7/  9 1023.0R
BUOY 41002       0250   74 76  170/ 10/ 12 1024.8F   3/ 7   2/ 80/ 7
BUOY 41010       0310   78 78  120/ 16/ 19 1021.6
ST AUGUSTINE FL  0300   76 78  140/ 17/ 18 1021.8R


$$



USA.gov is the U.S. government's official web portal to all federal, state and local government web resources and services.